Voltar ao catálogo

STARLINK-4333

AtivoComunicaçõesSSO
NORAD 53088·PAYLOAD·🇺🇸 United States

Lançado Jul 11, 2022 de Vandenberg Space Force Base

Loading…

Próximas Passagens (próximas 24 horas)

TLE

AtualizadoSource: CelesTrak SupGP

Época: Sep 14, 2026, 21:18 UTC

1 53088C 22077AX  26257.88798611  .00081579  00000+0  25365-2 0  2571
2 53088  97.2853  72.7172 0001722  83.9113 234.1094 15.33346218    13

Acompanhe STARLINK-4333 em tempo real com AllMySat

Download on the App Store